| time (UTC) | temp F | wind direction | speed MPH | gust MPH | rain 1hr in | rain 24hr in | rain mn in | humidity % | barometer mb |
| 20260904115816 | 75 | 47 | 0.0 | 0.0 | 0.00 | 0.15 | 0.15 | 85 | 1010.1 |
| 20260904115312 | 75 | 47 | 0.0 | 0.0 | 0.07 | 0.15 | 0.15 | 84 | 1010.5 |
| 20260904114811 | 75 | 47 | 0.0 | 0.0 | 0.07 | 0.15 | 0.15 | 84 | 1010.5 |
| 20260904114306 | 75 | 47 | 1.0 | 1.0 | 0.78 | 0.14 | 0.14 | 83 | 1010.1 |
| 20260904113801 | 75 | 18 | 1.0 | 2.0 | 0.78 | 0.13 | 0.13 | 83 | 1010.5 |
| 20260904113300 | 75 | 35 | 0.0 | 0.0 | 0.00 | 0.00 | 0.00 | 82 | 1010.1 |
| 20260904112755 | 75 | 33 | 0.0 | 0.0 | 0.00 | 0.00 | 0.00 | 82 | 1010.5 |
| 20260904112251 | 75 | 33 | 0.0 | 0.0 | 0.00 | 0.00 | 0.00 | 82 | 1010.1 |
| 20260904111746 | 75 | 33 | 0.0 | 0.0 | 0.00 | 0.00 | 0.00 | 81 | 1010.1 |
| 20260904111242 | 76 | 33 | 0.0 | 0.0 | 0.00 | 0.00 | 0.00 | 81 | 1010.1 |
| 20260904110738 | 76 | 33 | 0.0 | 0.0 | 0.00 | 0.00 | 0.00 | 81 | 1010.1 |
| 20260904110236 | 76 | 33 | 0.0 | 0.0 | 0.00 | 0.00 | 0.00 | 81 | 1010.1 |
| 20260904105732 | 76 | 33 | 0.0 | 0.0 | 0.00 | 0.00 | 0.00 | 81 | 1009.8 |
| 20260904105226 | 76 | 33 | 0.0 | 0.0 | 0.00 | 0.00 | 0.00 | 81 | 1009.8 |
| 20260904104722 | 76 | 33 | 0.0 | 0.0 | 0.00 | 0.00 | 0.00 | 81 | 1009.8 |
| 20260904104217 | 76 | 33 | 0.0 | 0.0 | 0.00 | 0.00 | 0.00 | 81 | 1010.5 |
| 20260904103715 | 76 | 33 | 0.0 | 0.0 | 0.00 | 0.00 | 0.00 | 81 | 1010.1 |
| 20260904103209 | 76 | 33 | 0.0 | 1.0 | 0.00 | 0.00 | 0.00 | 81 | 1010.1 |
| 20260904102705 | 76 | 33 | 0.0 | 0.0 | 0.00 | 0.00 | 0.00 | 82 | 1010.1 |
| 20260904102200 | 76 | 33 | 0.0 | 0.0 | 0.00 | 0.00 | 0.00 | 82 | 1010.1 |
| 20260904101657 | 76 | 33 | 0.0 | 0.0 | 0.00 | 0.00 | 0.00 | 82 | 1010.1 |
| 20260904101152 | 76 | 33 | 0.0 | 0.0 | 0.00 | 0.00 | 0.00 | 82 | 1010.1 |
| 20260904100648 | 77 | 33 | 0.0 | 0.0 | 0.00 | 0.00 | 0.00 | 81 | 1009.8 |
| 20260904100143 | 77 | 33 | 0.0 | 0.0 | 0.00 | 0.00 | 0.00 | 81 | 1010.5 |
| 20260904095643 | 77 | 33 | 0.0 | 0.0 | 0.00 | 0.00 | 0.00 | 81 | 1010.5 |
| 20260904095137 | 77 | 33 | 0.0 | 0.0 | 0.00 | 0.00 | 0.00 | 81 | 1010.1 |
| 20260904094633 | 77 | 33 | 0.0 | 0.0 | 0.00 | 0.00 | 0.00 | 81 | 1010.1 |
| 20260904094133 | 77 | 33 | 0.0 | 0.0 | 0.00 | 0.00 | 0.00 | 81 | 1010.1 |
| 20260904093630 | 77 | 33 | 0.0 | 0.0 | 0.00 | 0.00 | 0.00 | 81 | 1010.5 |
| 20260904093129 | 77 | 33 | 0.0 | 0.0 | 0.00 | 0.00 | 0.00 | 81 | 1010.5 |
| 20260904092626 | 77 | 33 | 0.0 | 0.0 | 0.00 | 0.00 | 0.00 | 81 | 1010.1 |
| 20260904092122 | 77 | 33 | 0.0 | 0.0 | 0.00 | 0.00 | 0.00 | 81 | 1009.8 |
| 20260904091618 | 77 | 33 | 0.0 | 0.0 | 0.00 | 0.00 | 0.00 | 81 | 1010.1 |
| 20260904091117 | 77 | 33 | 0.0 | 0.0 | 0.00 | 0.00 | 0.00 | 81 | 1010.1 |
| 20260904090613 | 77 | 33 | 0.0 | 0.0 | 0.00 | 0.00 | 0.00 | 81 | 1010.1 |
| 20260904090109 | 77 | 33 | 0.0 | 0.0 | 0.00 | 0.00 | 0.00 | 80 | 1010.1 |
| 20260904085603 | 77 | 33 | 0.0 | 0.0 | 0.00 | 0.00 | 0.00 | 80 | 1010.1 |
| 20260904085103 | 78 | 33 | 0.0 | 0.0 | 0.00 | 0.00 | 0.00 | 80 | 1010.1 |
| 20260904084558 | 78 | 33 | 0.0 | 0.0 | 0.00 | 0.00 | 0.00 | 80 | 1010.1 |
| 20260904084055 | 78 | 33 | 0.0 | 0.0 | 0.00 | 0.00 | 0.00 | 80 | 1009.8 |
| 20260904083550 | 78 | 32 | 0.0 | 0.0 | 0.00 | 0.00 | 0.00 | 80 | 1009.8 |
| 20260904083046 | 78 | 28 | 0.0 | 0.0 | 0.00 | 0.00 | 0.00 | 79 | 1009.8 |
| 20260904082541 | 78 | 43 | 0.0 | 0.0 | 0.00 | 0.00 | 0.00 | 80 | 1009.8 |
| 20260904082036 | 78 | 43 | 0.0 | 0.0 | 0.00 | 0.00 | 0.00 | 80 | 1009.8 |
| 20260904081531 | 78 | 43 | 0.0 | 0.0 | 0.00 | 0.00 | 0.00 | 80 | 1009.4 |
| 20260904081027 | 78 | 43 | 0.0 | 1.0 | 0.00 | 0.00 | 0.00 | 80 | 1009.4 |
| 20260904080522 | 78 | 43 | 0.0 | 0.0 | 0.00 | 0.00 | 0.00 | 81 | 1009.4 |
| 20260904080018 | 78 | 31 | 0.0 | 0.0 | 0.00 | 0.00 | 0.00 | 81 | 1009.4 |
| 20260904075514 | 78 | 31 | 0.0 | 1.0 | 0.00 | 0.00 | 0.00 | 80 | 1009.4 |
| 20260904075009 | 77 | 31 | 0.0 | 0.0 | 0.00 | 0.00 | 0.00 | 81 | 1009.4 |
| 20260904074503 | 77 | 31 | 1.0 | 1.0 | 0.00 | 0.00 | 0.00 | 81 | 1009.4 |
| 20260904073957 | 77 | 31 | 1.0 | 1.0 | 0.00 | 0.00 | 0.00 | 82 | 1009.4 |
| 20260904073453 | 77 | 30 | 1.0 | 1.0 | 0.00 | 0.00 | 0.00 | 83 | 1009.8 |
| 20260904072949 | 77 | 30 | 0.0 | 0.0 | 0.00 | 0.00 | 0.00 | 84 | 1009.4 |
| 20260904072445 | 77 | 30 | 0.0 | 0.0 | 0.00 | 0.00 | 0.00 | 85 | 1009.8 |
| 20260904071945 | 77 | 30 | 0.0 | 1.0 | 0.00 | 0.00 | 0.00 | 86 | 1009.8 |
| 20260904071441 | 77 | 30 | 1.0 | 1.0 | 0.00 | 0.00 | 0.00 | 87 | 1009.4 |
| 20260904070935 | 77 | 30 | 1.0 | 1.0 | 0.00 | 0.00 | 0.00 | 87 | 1009.8 |
| 20260904070433 | 77 | 30 | 1.0 | 1.0 | 0.00 | 0.00 | 0.00 | 87 | 1009.8 |
| 20260904065928 | 77 | 30 | 0.0 | 0.0 | 0.00 | 0.00 | 0.00 | 87 | 1010.1 |
| 20260904065424 | 77 | 30 | 0.0 | 0.0 | 0.00 | 0.00 | 0.00 | 87 | 1009.8 |
| 20260904064924 | 77 | 31 | 0.0 | 1.0 | 0.00 | 0.00 | 0.00 | 87 | 1010.1 |
| 20260904064420 | 77 | 342 | 0.0 | 0.0 | 0.00 | 0.00 | 0.00 | 87 | 1009.8 |
| 20260904063910 | 77 | 339 | 0.0 | 0.0 | 0.00 | 0.00 | 0.00 | 86 | 1009.8 |
| 20260904063407 | 77 | 331 | 0.0 | 0.0 | 0.00 | 0.00 | 0.00 | 86 | 1010.1 |
| 20260904062907 | 77 | 307 | 0.0 | 1.0 | 0.00 | 0.00 | 0.00 | 86 | 1010.1 |
| 20260904062403 | 77 | 228 | 0.0 | 0.0 | 0.00 | 0.00 | 0.00 | 86 | 1010.1 |
| 20260904061859 | 77 | 175 | 0.0 | 0.0 | 0.00 | 0.00 | 0.00 | 86 | 1010.1 |
| 20260904061355 | 77 | 124 | 0.0 | 0.0 | 0.00 | 0.00 | 0.00 | 86 | 1010.5 |
| 20260904060851 | 77 | 87 | 0.0 | 0.0 | 0.00 | 0.00 | 0.00 | 86 | 1010.1 |
| 20260904060347 | 77 | 87 | 0.0 | 0.0 | 0.00 | 0.00 | 0.00 | 86 | 1010.5 |
| 20260904055841 | 77 | 87 | 0.0 | 0.0 | 0.00 | 0.00 | 0.00 | 86 | 1010.5 |
| 20260904055337 | 77 | 87 | 0.0 | 0.0 | 0.00 | 0.00 | 0.00 | 86 | 1010.5 |
| 20260904054832 | 77 | 87 | 0.0 | 0.0 | 0.00 | 0.00 | 0.00 | 86 | 1010.5 |
| 20260904054328 | 77 | 87 | 0.0 | 0.0 | 0.00 | 0.00 | 0.00 | 86 | 1010.5 |
| 20260904053824 | 77 | 87 | 0.0 | 0.0 | 0.00 | 0.00 | 0.00 | 86 | 1010.8 |
| 20260904053323 | 77 | 87 | 0.0 | 0.0 | 0.00 | 0.00 | 0.00 | 86 | 1010.5 |
| 20260904052819 | 77 | 87 | 0.0 | 0.0 | 0.00 | 0.00 | 0.00 | 86 | 1010.5 |
| 20260904052315 | 77 | 87 | 0.0 | 0.0 | 0.00 | 0.00 | 0.00 | 86 | 1010.5 |
| 20260904051811 | 77 | 87 | 0.0 | 0.0 | 0.00 | 0.00 | 0.00 | 86 | 1010.5 |
| 20260904051307 | 77 | 87 | 0.0 | 0.0 | 0.00 | 0.00 | 0.00 | 86 | 1010.5 |
| 20260904050802 | 77 | 87 | 0.0 | 0.0 | 0.00 | 0.00 | 0.00 | 86 | 1010.8 |
| 20260904050258 | 77 | 87 | 0.0 | 0.0 | 0.00 | 0.00 | 0.00 | 86 | 1010.5 |
| 20260904045753 | 77 | 87 | 0.0 | 0.0 | 0.00 | 0.20 | 0.20 | 85 | 1010.5 |
| 20260904045247 | 77 | 87 | 0.0 | 0.0 | 0.00 | 0.20 | 0.20 | 85 | 1010.5 |
| 20260904044742 | 77 | 87 | 0.0 | 0.0 | 0.00 | 0.20 | 0.20 | 85 | 1010.8 |
| 20260904044239 | 77 | 87 | 0.0 | 0.0 | 0.00 | 0.20 | 0.20 | 85 | 1010.5 |
| 20260904043734 | 77 | 87 | 0.0 | 0.0 | 0.00 | 0.20 | 0.20 | 85 | 1010.5 |
| 20260904043231 | 77 | 87 | 0.0 | 0.0 | 0.00 | 0.20 | 0.20 | 85 | 1010.5 |
| 20260904042726 | 77 | 87 | 0.0 | 0.0 | 0.00 | 0.20 | 0.20 | 85 | 1010.8 |
| 20260904042223 | 77 | 87 | 0.0 | 0.0 | 0.00 | 0.20 | 0.20 | 85 | 1010.8 |
| 20260904041722 | 77 | 87 | 0.0 | 0.0 | 0.00 | 0.20 | 0.20 | 85 | 1010.8 |
| 20260904041218 | 77 | 87 | 0.0 | 0.0 | 0.00 | 0.20 | 0.20 | 86 | 1010.8 |
| 20260904040714 | 77 | 87 | 0.0 | 0.0 | 0.00 | 0.20 | 0.20 | 86 | 1010.5 |
| 20260904040209 | 77 | 87 | 0.0 | 0.0 | 0.00 | 0.20 | 0.20 | 86 | 1010.8 |
| 20260904035705 | 77 | 87 | 0.0 | 0.0 | 0.00 | 0.20 | 0.20 | 86 | 1010.8 |
| 20260904035200 | 77 | 87 | 0.0 | 0.0 | 0.00 | 0.20 | 0.20 | 86 | 1010.8 |
| 20260904034659 | 76 | 87 | 0.0 | 1.0 | 0.00 | 0.20 | 0.20 | 87 | 1010.8 |
| 20260904034155 | 76 | 87 | 0.0 | 0.0 | 0.00 | 0.20 | 0.20 | 87 | 1010.8 |
| 20260904033651 | 76 | 87 | 0.0 | 0.0 | 0.00 | 0.20 | 0.20 | 87 | 1010.8 |
| 20260904033148 | 76 | 87 | 0.0 | 0.0 | 0.00 | 0.20 | 0.20 | 87 | 1010.8 |
| 20260904032643 | 76 | 87 | 0.0 | 0.0 | 0.00 | 0.20 | 0.20 | 87 | 1010.5 |
| 20260904032142 | 76 | 87 | 0.0 | 0.0 | 0.00 | 0.20 | 0.20 | 87 | 1010.5 |
| 20260904031642 | 76 | 87 | 0.0 | 0.0 | 0.00 | 0.20 | 0.20 | 87 | 1010.5 |
| 20260904031138 | 76 | 87 | 1.0 | 1.0 | 0.00 | 0.20 | 0.20 | 86 | 1010.1 |
| 20260904030633 | 76 | 87 | 1.0 | 1.0 | 0.00 | 0.20 | 0.20 | 86 | 1010.5 |
| 20260904030128 | 76 | 87 | 1.0 | 1.0 | 0.00 | 0.20 | 0.20 | 85 | 1010.5 |
| 20260904025625 | 76 | 87 | 0.0 | 0.0 | 0.00 | 0.20 | 0.20 | 85 | 1010.8 |
| 20260904025119 | 76 | 87 | 0.0 | 0.0 | 0.00 | 0.20 | 0.20 | 85 | 1010.8 |
| 20260904024614 | 76 | 87 | 0.0 | 0.0 | 0.00 | 0.20 | 0.20 | 84 | 1010.8 |
| 20260904024110 | 77 | 87 | 0.0 | 0.0 | 0.00 | 0.20 | 0.20 | 84 | 1011.1 |
| 20260904023601 | 77 | 87 | 0.0 | 0.0 | 0.00 | 0.20 | 0.20 | 83 | 1011.1 |
| 20260904023056 | 77 | 87 | 0.0 | 0.0 | 0.00 | 0.20 | 0.20 | 83 | 1010.8 |
| 20260904022556 | 77 | 87 | 0.0 | 0.0 | 0.00 | 0.20 | 0.20 | 83 | 1010.8 |
| 20260904022053 | 77 | 87 | 0.0 | 0.0 | 0.00 | 0.20 | 0.20 | 82 | 1010.8 |
| 20260904021548 | 77 | 87 | 0.0 | 0.0 | 0.00 | 0.20 | 0.20 | 82 | 1011.1 |
| 20260904021043 | 77 | 87 | 0.0 | 0.0 | 0.00 | 0.20 | 0.20 | 82 | 1010.5 |
| 20260904020538 | 77 | 87 | 0.0 | 0.0 | 0.00 | 0.20 | 0.20 | 81 | 1010.8 |
| 20260904020033 | 77 | 87 | 0.0 | 0.0 | 0.00 | 0.20 | 0.20 | 81 | 1010.5 |
| 20260904015527 | 77 | 87 | 0.0 | 0.0 | 0.00 | 0.20 | 0.20 | 81 | 1010.5 |
| 20260904015026 | 78 | 87 | 0.0 | 0.0 | 0.00 | 0.20 | 0.20 | 81 | 1010.5 |
| 20260904014520 | 78 | 87 | 0.0 | 0.0 | 0.00 | 0.20 | 0.20 | 81 | 1010.5 |
| 20260904014016 | 78 | 87 | 0.0 | 0.0 | 0.00 | 0.20 | 0.20 | 80 | 1010.1 |
| 20260904013512 | 78 | 87 | 0.0 | 0.0 | 0.00 | 0.20 | 0.20 | 80 | 1010.5 |
| 20260904013009 | 78 | 87 | 0.0 | 0.0 | 0.00 | 0.20 | 0.20 | 80 | 1010.5 |
| 20260904012509 | 78 | 87 | 0.0 | 0.0 | 0.00 | 0.20 | 0.20 | 79 | 1010.1 |
| 20260904012002 | 78 | 87 | 0.0 | 0.0 | 0.00 | 0.20 | 0.20 | 79 | 1010.5 |
| 20260904011457 | 78 | 87 | 0.0 | 0.0 | 0.00 | 0.20 | 0.20 | 79 | 1010.1 |
| 20260904010952 | 78 | 87 | 0.0 | 0.0 | 0.00 | 0.20 | 0.20 | 79 | 1010.5 |
| 20260904010449 | 78 | 87 | 0.0 | 0.0 | 0.00 | 0.20 | 0.20 | 79 | 1010.1 |
| 20260904005949 | 78 | 87 | 0.0 | 0.0 | 0.00 | 0.20 | 0.20 | 78 | 1010.1 |
| 20260904005445 | 79 | 87 | 0.0 | 0.0 | 0.00 | 0.20 | 0.20 | 78 | 1010.1 |
| 20260904004939 | 79 | 87 | 0.0 | 0.0 | 0.00 | 0.20 | 0.20 | 78 | 1010.1 |
| 20260904004436 | 79 | 87 | 0.0 | 0.0 | 0.00 | 0.20 | 0.20 | 78 | 1010.1 |
| 20260904003935 | 79 | 87 | 0.0 | 0.0 | 0.00 | 0.20 | 0.20 | 78 | 1009.8 |
| 20260904003431 | 79 | 87 | 0.0 | 0.0 | 0.00 | 0.20 | 0.20 | 78 | 1009.8 |
| 20260904002926 | 80 | 87 | 0.0 | 0.0 | 0.00 | 0.20 | 0.20 | 77 | 1010.1 |
| 20260904002423 | 80 | 87 | 0.0 | 1.0 | 0.00 | 0.20 | 0.20 | 77 | 1009.8 |
| 20260904001921 | 80 | 87 | 0.0 | 1.0 | 0.00 | 0.20 | 0.20 | 77 | 1009.8 |
| 20260904001417 | 80 | 87 | 0.0 | 0.0 | 0.00 | 0.20 | 0.20 | 77 | 1010.1 |
| 20260904000912 | 80 | 87 | 0.0 | 0.0 | 0.00 | 0.20 | 0.20 | 76 | 1010.1 |
| 20260904000412 | 80 | 87 | 0.0 | 0.0 | 0.00 | 0.20 | 0.20 | 75 | 1010.1 |
| 20260903235906 | 80 | 87 | 0.0 | 0.0 | 0.00 | 0.20 | 0.20 | 75 | 1009.8 |
| 20260903235403 | 80 | 87 | 0.0 | 1.0 | 0.00 | 0.20 | 0.20 | 74 | 1009.8 |
| 20260903234902 | 80 | 87 | 0.0 | 0.0 | 0.00 | 0.20 | 0.20 | 75 | 1009.8 |
| 20260903234358 | 80 | 87 | 1.0 | 1.0 | 0.00 | 0.20 | 0.20 | 75 | 1009.8 |
| 20260903233854 | 81 | 87 | 0.0 | 1.0 | 0.00 | 0.20 | 0.20 | 75 | 1009.8 |
| 20260903233350 | 81 | 87 | 1.0 | 1.0 | 0.00 | 0.20 | 0.20 | 74 | 1010.1 |
| 20260903232849 | 81 | 87 | 0.0 | 0.0 | 0.00 | 0.20 | 0.20 | 74 | 1010.5 |
| 20260903232345 | 81 | 87 | 1.0 | 2.0 | 0.00 | 0.20 | 0.20 | 74 | 1010.1 |
| 20260903231844 | 81 | 87 | 0.0 | 0.0 | 0.00 | 0.20 | 0.20 | 73 | 1010.5 |
| 20260903231339 | 81 | 87 | 0.0 | 0.0 | 0.00 | 0.20 | 0.20 | 73 | 1010.1 |
| 20260903230835 | 81 | 87 | 0.0 | 1.0 | 0.00 | 0.20 | 0.20 | 73 | 1010.5 |
| 20260903230330 | 82 | 87 | 0.0 | 0.0 | 0.00 | 0.20 | 0.20 | 72 | 1010.1 |
| 20260903225826 | 82 | 87 | 0.0 | 1.0 | 0.00 | 0.20 | 0.20 | 72 | 1010.1 |
| 20260903225322 | 82 | 87 | 0.0 | 1.0 | 0.00 | 0.20 | 0.20 | 72 | 1010.1 |
| 20260903224818 | 82 | 87 | 0.0 | 1.0 | 0.00 | 0.20 | 0.20 | 72 | 1010.1 |
| 20260903224313 | 82 | 87 | 0.0 | 1.0 | 0.00 | 0.20 | 0.20 | 71 | 1010.1 |
| 20260903223804 | 83 | 87 | 0.0 | 1.0 | 0.00 | 0.20 | 0.20 | 71 | 1010.5 |
| 20260903223302 | 83 | 87 | 1.0 | 1.0 | 0.00 | 0.20 | 0.20 | 70 | 1010.5 |
| 20260903222757 | 83 | 104 | 0.0 | 0.0 | 0.00 | 0.20 | 0.20 | 69 | 1010.1 |
| 20260903222256 | 83 | 104 | 0.0 | 0.0 | 0.00 | 0.20 | 0.20 | 69 | 1010.5 |
| 20260903221750 | 83 | 104 | 1.0 | 1.0 | 0.00 | 0.20 | 0.20 | 70 | 1010.1 |
| 20260903221244 | 83 | 106 | 1.0 | 1.0 | 0.00 | 0.20 | 0.20 | 69 | 1010.5 |
| 20260903220742 | 83 | 78 | 0.0 | 0.0 | 0.00 | 0.20 | 0.20 | 68 | 1010.1 |
| 20260903220237 | 84 | 78 | 1.0 | 1.0 | 0.00 | 0.20 | 0.20 | 68 | 1010.1 |
| 20260903215736 | 84 | 78 | 0.0 | 0.0 | 0.00 | 0.20 | 0.20 | 67 | 1010.5 |
| 20260903215232 | 84 | 78 | 0.0 | 1.0 | 0.00 | 0.20 | 0.20 | 67 | 1010.5 |
| 20260903214729 | 84 | 78 | 1.0 | 1.0 | 0.00 | 0.20 | 0.20 | 66 | 1010.5 |
| 20260903214226 | 85 | 78 | 1.0 | 1.0 | 0.00 | 0.20 | 0.20 | 66 | 1010.5 |
| 20260903213720 | 85 | 78 | 1.0 | 1.0 | 0.00 | 0.20 | 0.20 | 64 | 1010.5 |
| 20260903213216 | 85 | 78 | 1.0 | 1.0 | 0.00 | 0.20 | 0.20 | 64 | 1010.5 |
| 20260903212712 | 85 | 78 | 0.0 | 1.0 | 0.00 | 0.20 | 0.20 | 63 | 1010.5 |
| 20260903212208 | 85 | 78 | 0.0 | 0.0 | 0.00 | 0.20 | 0.20 | 64 | 1010.5 |
| 20260903211701 | 85 | 78 | 0.0 | 1.0 | 0.00 | 0.20 | 0.20 | 63 | 1010.5 |
| 20260903211158 | 84 | 74 | 0.0 | 1.0 | 0.00 | 0.20 | 0.20 | 60 | 1011.1 |
| 20260903210654 | 83 | 88 | 0.0 | 0.0 | 0.00 | 0.20 | 0.20 | 62 | 1010.8 |
| 20260903210150 | 83 | 251 | 0.0 | 0.0 | 0.00 | 0.20 | 0.20 | 63 | 1010.8 |
| 20260903205649 | 82 | 69 | 1.0 | 1.0 | 0.00 | 0.20 | 0.20 | 68 | 1010.8 |
| 20260903205148 | 82 | 77 | 1.0 | 1.0 | 0.00 | 0.20 | 0.20 | 65 | 1010.8 |
| 20260903204644 | 81 | 154 | 1.0 | 2.0 | 0.00 | 0.20 | 0.20 | 71 | 1011.1 |
| 20260903204140 | 81 | 85 | 1.0 | 1.0 | 0.00 | 0.20 | 0.20 | 70 | 1010.8 |
| 20260903203635 | 81 | 69 | 0.0 | 1.0 | 0.00 | 0.20 | 0.20 | 71 | 1010.8 |
| 20260903203130 | 81 | 85 | 0.0 | 0.0 | 0.00 | 0.20 | 0.20 | 71 | 1011.1 |
| 20260903202625 | 81 | 89 | 0.0 | 0.0 | 0.00 | 0.20 | 0.20 | 73 | 1010.8 |
| 20260903202120 | 81 | 64 | 0.0 | 1.0 | 0.00 | 0.20 | 0.20 | 72 | 1011.1 |
| 20260903201615 | 81 | 63 | 0.0 | 1.0 | 0.00 | 0.20 | 0.20 | 72 | 1011.1 |
| 20260903201114 | 81 | 63 | 0.0 | 1.0 | 0.00 | 0.20 | 0.20 | 71 | 1010.8 |
| 20260903200610 | 81 | 63 | 0.0 | 0.0 | 0.00 | 0.20 | 0.20 | 70 | 1011.1 |
| 20260903200104 | 81 | 63 | 0.0 | 0.0 | 0.00 | 0.20 | 0.20 | 69 | 1011.1 |
| 20260903195601 | 81 | 63 | 0.0 | 0.0 | 0.00 | 0.20 | 0.20 | 71 | 1011.1 |
| 20260903195056 | 81 | 64 | 0.0 | 1.0 | 0.00 | 0.20 | 0.20 | 70 | 1011.1 |
| 20260903194551 | 81 | 64 | 0.0 | 1.0 | 0.00 | 0.20 | 0.20 | 68 | 1011.1 |
| 20260903194046 | 81 | 64 | 1.0 | 1.0 | 0.00 | 0.20 | 0.20 | 71 | 1011.1 |
| 20260903193542 | 81 | 64 | 1.0 | 1.0 | 0.00 | 0.20 | 0.20 | 71 | 1011.1 |
| 20260903193037 | 82 | 64 | 0.0 | 1.0 | 0.00 | 0.20 | 0.20 | 72 | 1010.8 |
| 20260903192534 | 82 | 64 | 1.0 | 1.0 | 0.00 | 0.20 | 0.20 | 74 | 1011.1 |
| 20260903192034 | 82 | 64 | 1.0 | 1.0 | 0.00 | 0.20 | 0.20 | 70 | 1011.1 |
| 20260903191531 | 81 | 64 | 1.0 | 1.0 | 0.00 | 0.20 | 0.20 | 72 | 1011.5 |
| 20260903191025 | 81 | 64 | 0.0 | 0.0 | 0.00 | 0.20 | 0.20 | 74 | 1011.5 |
| 20260903190524 | 80 | 64 | 0.0 | 0.0 | 0.00 | 0.20 | 0.20 | 75 | 1011.5 |
| 20260903190024 | 80 | 63 | 0.0 | 0.0 | 0.00 | 0.20 | 0.20 | 75 | 1011.8 |
| 20260903185520 | 80 | 61 | 0.0 | 0.0 | 0.00 | 0.20 | 0.20 | 75 | 1011.8 |
| 20260903185015 | 80 | 61 | 0.0 | 0.0 | 0.00 | 0.20 | 0.20 | 74 | 1011.8 |
| 20260903184506 | 80 | 61 | 0.0 | 1.0 | 0.00 | 0.20 | 0.20 | 73 | 1011.5 |
| 20260903184006 | 80 | 62 | 0.0 | 0.0 | 0.00 | 0.20 | 0.20 | 76 | 1011.5 |
| 20260903183500 | 79 | 61 | 0.0 | 0.0 | 0.00 | 0.20 | 0.20 | 76 | 1011.5 |
| 20260903183000 | 78 | 61 | 0.0 | 0.0 | 0.00 | 0.20 | 0.20 | 76 | 1011.5 |
| 20260903182458 | 78 | 66 | 0.0 | 1.0 | 0.00 | 0.20 | 0.20 | 79 | 1011.5 |
| 20260903181954 | 77 | 65 | 0.0 | 1.0 | 0.00 | 0.20 | 0.20 | 77 | 1011.1 |
| 20260903181448 | 77 | 65 | 0.0 | 0.0 | 0.00 | 0.20 | 0.20 | 77 | 1011.1 |
| 20260903180948 | 76 | 65 | 0.0 | 0.0 | 0.00 | 0.20 | 0.20 | 79 | 1011.5 |
| 20260903180443 | 76 | 65 | 0.0 | 1.0 | 0.00 | 0.20 | 0.20 | 81 | 1011.1 |
| 20260903175942 | 75 | 65 | 0.0 | 0.0 | 0.00 | 0.20 | 0.20 | 81 | 1011.5 |
| 20260903175437 | 75 | 65 | 0.0 | 1.0 | 0.00 | 0.20 | 0.20 | 84 | 1011.1 |
| 20260903174930 | 75 | 65 | 0.0 | 1.0 | 0.00 | 0.20 | 0.20 | 85 | 1011.8 |
| 20260903174426 | 75 | 65 | 0.0 | 0.0 | 0.00 | 0.20 | 0.20 | 87 | 1011.5 |
| 20260903173926 | 75 | 66 | 0.0 | 0.0 | 0.00 | 0.20 | 0.20 | 87 | 1011.5 |
| 20260903173426 | 74 | 65 | 1.0 | 1.0 | 0.00 | 0.20 | 0.20 | 88 | 1011.8 |
| 20260903172921 | 74 | 59 | 0.0 | 1.0 | 0.00 | 0.20 | 0.20 | 88 | 1011.5 |
| 20260903172416 | 73 | 52 | 0.0 | 0.0 | 0.00 | 0.20 | 0.20 | 89 | 1011.8 |
| 20260903171912 | 72 | 50 | 1.0 | 1.0 | 0.00 | 0.20 | 0.20 | 89 | 1011.8 |
| 20260903171407 | 71 | 52 | 0.0 | 0.0 | 0.00 | 0.20 | 0.20 | 89 | 1011.5 |
| 20260903170906 | 71 | 52 | 0.0 | 1.0 | 0.00 | 0.20 | 0.20 | 89 | 1011.5 |
| 20260903170402 | 71 | 52 | 1.0 | 2.0 | 0.00 | 0.20 | 0.20 | 89 | 1011.1 |
| 20260903165900 | 70 | 53 | 0.0 | 1.0 | 0.00 | 0.20 | 0.20 | 89 | 1011.1 |
| 20260903165355 | 70 | 53 | 1.0 | 2.0 | 0.00 | 0.20 | 0.20 | 89 | 1011.1 |
| 20260903164849 | 70 | 51 | 0.0 | 1.0 | 0.00 | 0.20 | 0.20 | 89 | 1010.8 |
| 20260903164344 | 70 | 49 | 1.0 | 1.0 | 0.00 | 0.20 | 0.20 | 89 | 1011.5 |
| 20260903163844 | 70 | 39 | 1.0 | 1.0 | 0.00 | 0.20 | 0.20 | 89 | 1011.8 |
| 20260903163341 | 70 | 39 | 1.0 | 1.0 | 0.00 | 0.20 | 0.20 | 89 | 1011.8 |
| 20260903162836 | 70 | 39 | 0.0 | 0.0 | 0.00 | 0.20 | 0.20 | 89 | 1011.8 |
| 20260903162333 | 70 | 54 | 0.0 | 1.0 | 0.00 | 0.20 | 0.20 | 89 | 1011.8 |
| 20260903161828 | 70 | 54 | 0.0 | 1.0 | 0.00 | 0.20 | 0.20 | 89 | 1011.5 |
| 20260903161324 | 70 | 54 | 1.0 | 1.0 | 0.00 | 0.20 | 0.20 | 89 | 1011.5 |
| 20260903160819 | 70 | 46 | 1.0 | 1.0 | 0.00 | 0.20 | 0.20 | 89 | 1011.8 |
| 20260903160318 | 70 | 45 | 0.0 | 0.0 | 0.00 | 0.20 | 0.20 | 89 | 1012.5 |
| 20260903155817 | 70 | 42 | 1.0 | 1.0 | 0.00 | 0.20 | 0.20 | 89 | 1012.8 |
| 20260903155312 | 70 | 43 | 0.0 | 0.0 | 0.00 | 0.20 | 0.20 | 89 | 1013.2 |
| 20260903154808 | 70 | 43 | 0.0 | 0.0 | 0.00 | 0.20 | 0.20 | 89 | 1012.5 |
| 20260903154304 | 70 | 43 | 0.0 | 0.0 | 0.00 | 0.20 | 0.20 | 89 | 1012.5 |
| 20260903153759 | 70 | 288 | 1.0 | 2.0 | 0.07 | 0.20 | 0.20 | 89 | 1012.5 |
| 20260903153255 | 70 | 49 | 1.0 | 1.0 | 0.07 | 0.20 | 0.20 | 89 | 1012.2 |
| 20260903152751 | 70 | 51 | 0.0 | 0.0 | 0.00 | 0.19 | 0.19 | 89 | 1011.8 |
| 20260903152247 | 70 | 51 | 0.0 | 0.0 | 0.00 | 0.19 | 0.19 | 89 | 1011.8 |
| 20260903151746 | 70 | 28 | 0.0 | 0.0 | 0.05 | 0.19 | 0.19 | 88 | 1011.8 |
| 20260903151242 | 70 | 21 | 0.0 | 0.0 | 0.00 | 0.18 | 0.18 | 88 | 1012.2 |
| 20260903150737 | 70 | 350 | 1.0 | 2.0 | 0.00 | 0.18 | 0.18 | 88 | 1012.2 |
| 20260903150236 | 70 | 302 | 1.0 | 1.0 | 0.07 | 0.18 | 0.18 | 88 | 1011.8 |
| 20260903145731 | 70 | 42 | 0.0 | 1.0 | 0.12 | 0.18 | 0.18 | 88 | 1011.1 |
| 20260903145227 | 70 | 36 | 1.0 | 1.0 | 0.05 | 0.17 | 0.17 | 88 | 1011.1 |
| 20260903144725 | 70 | 27 | 0.0 | 0.0 | 0.00 | 0.16 | 0.16 | 88 | 1012.2 |
| 20260903144221 | 70 | 338 | 0.0 | 1.0 | 0.00 | 0.16 | 0.16 | 88 | 1011.8 |
| 20260903143717 | 69 | 38 | 0.0 | 0.0 | 0.00 | 0.16 | 0.16 | 88 | 1011.1 |
| 20260903143213 | 69 | 38 | 0.0 | 0.0 | 0.00 | 0.16 | 0.16 | 88 | 1011.1 |
| 20260903142708 | 69 | 38 | 0.0 | 0.0 | 0.00 | 0.16 | 0.16 | 88 | 1011.8 |
| 20260903142204 | 69 | 38 | 0.0 | 0.0 | 0.00 | 0.16 | 0.16 | 88 | 1011.8 |
| 20260903141659 | 69 | 42 | 0.0 | 0.0 | 0.00 | 0.16 | 0.16 | 88 | 1011.8 |
| 20260903141154 | 69 | 42 | 0.0 | 0.0 | 0.00 | 0.16 | 0.16 | 88 | 1011.8 |
| 20260903140650 | 69 | 42 | 0.0 | 0.0 | 0.00 | 0.16 | 0.16 | 88 | 1012.2 |
| 20260903140146 | 69 | 38 | 1.0 | 1.0 | 0.00 | 0.16 | 0.16 | 88 | 1012.2 |
| 20260903135642 | 69 | 29 | 0.0 | 1.0 | 0.07 | 0.16 | 0.16 | 88 | 1012.2 |
| 20260903135136 | 69 | 31 | 0.0 | 0.0 | 0.07 | 0.16 | 0.16 | 88 | 1012.5 |
| 20260903134635 | 69 | 31 | 0.0 | 0.0 | 0.00 | 0.15 | 0.15 | 88 | 1012.2 |
| 20260903134131 | 69 | 37 | 1.0 | 2.0 | 0.00 | 0.15 | 0.15 | 88 | 1012.8 |
| 20260903133629 | 69 | 37 | 0.0 | 0.0 | 0.00 | 0.15 | 0.15 | 88 | 1012.8 |
| 20260903133125 | 69 | 42 | 0.0 | 0.0 | 0.05 | 0.15 | 0.15 | 88 | 1012.2 |
| 20260903132625 | 69 | 42 | 0.0 | 0.0 | 0.00 | 0.14 | 0.14 | 88 | 1012.8 |
| 20260903132119 | 69 | 42 | 2.0 | 2.0 | 0.07 | 0.14 | 0.14 | 88 | 1013.2 |
| 20260903131614 | 69 | 43 | 1.0 | 1.0 | 0.05 | 0.13 | 0.13 | 87 | 1012.8 |
| 20260903131113 | 69 | 43 | 0.0 | 0.0 | 0.05 | 0.13 | 0.13 | 87 | 1013.2 |
| 20260903130609 | 69 | 42 | 0.0 | 1.0 | 0.07 | 0.12 | 0.12 | 87 | 1013.2 |
| 20260903130057 | 69 | 42 | 0.0 | 0.0 | 0.14 | 0.12 | 0.12 | 87 | 1013.2 |
| 20260903125555 | 69 | 32 | 0.0 | 0.0 | 0.12 | 0.11 | 0.11 | 87 | 1013.6 |
| 20260903125050 | 69 | 31 | 0.0 | 0.0 | 0.17 | 0.10 | 0.10 | 87 | 1013.9 |
| 20260903124550 | 69 | 12 | 0.0 | 0.0 | 0.12 | 0.08 | 0.08 | 87 | 1014.3 |
| 20260903124045 | 69 | 4 | 0.0 | 1.0 | 0.12 | 0.07 | 0.07 | 86 | 1014.6 |
| 20260903123544 | 69 | 7 | 1.0 | 2.0 | 0.05 | 0.06 | 0.06 | 86 | 1014.6 |
| 20260903123043 | 69 | 359 | 2.0 | 3.0 | 0.07 | 0.05 | 0.05 | 86 | 1013.9 |
| 20260903122543 | 70 | 37 | 0.0 | 0.0 | 0.07 | 0.05 | 0.05 | 86 | 1013.9 |
| 20260903122043 | 70 | 36 | 0.0 | 0.0 | 0.00 | 0.04 | 0.04 | 86 | 1013.6 |
| 20260903121537 | 70 | 33 | 0.0 | 0.0 | 0.00 | 0.04 | 0.04 | 86 | 1013.2 |
| 20260903121033 | 70 | 26 | 0.0 | 0.0 | 0.00 | 0.04 | 0.04 | 86 | 1013.6 |
| 20260903120532 | 70 | 6 | 2.0 | 3.0 | 0.05 | 0.04 | 0.04 | 87 | 1013.6 |
| 20260903120027 | 70 | 250 | 0.0 | 1.0 | 0.05 | 0.04 | 0.04 | 87 | 1013.6 |